Regional Weather Roundup
Issued by NWS

Home | Current Version | Previous Version | Graphics & Text | Print | Product List | Glossary On
Versions: 1 2 3 4 5 6 7 8 9 10 11 12 13 14 15 16 17 18 19 20 21 22 23 24 25 26 27 28 29 30 31 32 33 34 35 36 37 38 39 40 41 42 43 44 45 46 47 48 49 50
816
ASUS44 KJAN 160603
RWRMS

MISSISSIPPI HOURLY WEATHER ROUNDUP
NATIONAL WEATHER SERVICE JACKSON MS
100 AM CDT WED APR 16 2014

NOTE: "FAIR: INDICATES FEW OR NO CLOUDS BELOW 12,000 FEET WITH NO
SIGNIFICANT WEATHER AND/OR OBSTRUCTIONS TO VISIBILITY.

MSZ001>002-007>008-010>013-018>021-025>028-034>036-160700-
NORTHWEST MISSISSIPPI

CITY           SKY/WX    TMP DP  RH WIND       PRES   REMARKS
CLARKSDALE       N/A     41  32  70 CALM      30.27S
CLEVELAND      FAIR      40  36  86 CALM      30.25S
GREENWOOD      FAIR      37  32  82 NE6       30.25F WCI  32
6HR MIN TEMP:  36; 6HR MAX TEMP:  49;

GREENVILLE     FAIR      42  32  67 E6        30.24F
6HR MIN TEMP:  42; 6HR MAX TEMP:  50;

GRENADA        FAIR      34  28  80 CALM      30.26S
OLIVE BRANCH   CLEAR     34  30  86 CALM      30.27S
OXFORD         FAIR      30  27  86 CALM      30.26F
TUNICA         FAIR      37  32  81 CALM      30.27S
$$

MSZ003>006-009-014>017-022>024-029>033-037>039-160700-
NORTHEAST MISSISSIPPI

CITY           SKY/WX    TMP DP  RH WIND       PRES   REMARKS
BELMONT        FAIR      35  27  73 N3        30.25S
COLUMBUS AFB   FAIR      38  31  77 N6        30.24F WCI  33
6HR MIN TEMP:  38; 6HR MAX TEMP:  50;

CORINTH        FAIR      32  32 100 CALM      30.27S
GOLDN TRIANGLE FAIR      36  27  69 N8        30.25F WCI  29
STARKVILLE     FAIR      36  32  87 CALM      30.23F
TUPELO         FAIR      35  28  75 NE6       30.25F WCI  30
6HR MIN TEMP:  33; 6HR MAX TEMP:  48;

$$

MSZ040-058-160700-
CENTRAL MISSISSIPPI

CITY           SKY/WX    TMP DP  RH WIND       PRES   REMARKS
JACKSON INTL   FAIR      41  33  73 N5        30.22S
6HR MIN TEMP:  41; 6HR MAX TEMP:  51;

JACKSON HAWKNS FAIR      42  30  62 CALM      30.23S
6HR MIN TEMP:  42; 6HR MAX TEMP:  50;

MERIDIAN KEY   FAIR      39  31  72 N5        30.21F
6HR MIN TEMP:  38; 6HR MAX TEMP:  51;

MERIDIAN NAS   FAIR      40  29  64 N6        30.21F
6HR MIN TEMP:  39; 6HR MAX TEMP:  51;

RAYMOND        FAIR      37  32  81 CALM      30.23F
VICKSBURG      FAIR      46  34  62 NE10      30.23F
6HR MIN TEMP:  46; 6HR MAX TEMP:  52;

$$

MSZ059>079-160700-
SOUTH MISSISSIPPI

CITY           SKY/WX    TMP DP  RH WIND       PRES   REMARKS
BROOKHAVEN     FAIR      37  34  87 N3        30.22F
COLUMBIA       FAIR      39  34  81 MISG      30.20F
HATTIESBURG    FAIR      43  35  73 N7        30.22S
6HR MIN TEMP:  43; 6HR MAX TEMP:  56;

MCCOMB         FAIR      41  32  70 N6        30.19F
6HR MIN TEMP:  40; 6HR MAX TEMP:  53;

NATCHEZ          N/A     41  30  65 NE5       30.21S
6HR MIN TEMP:  39; 6HR MAX TEMP:  52;

PINE BELT      FAIR      39  32  75 N6        30.21F WCI  35
6HR MIN TEMP:  39; 6HR MAX TEMP:  54;

$$

MSZ080>082-160700-
COASTAL MISSISSIPPI

CITY           SKY/WX    TMP DP  RH WIND       PRES   REMARKS
BILOXI         FAIR      45  35  68 N8        30.17F
6HR MIN TEMP:  45; 6HR MAX TEMP:  57;

PASCAGOULA     FAIR      45  32  60 N9        30.18S
6HR MIN TEMP:  45; 6HR MAX TEMP:  56;

GULFPORT       FAIR      47  33  58 N9        30.17F
6HR MIN TEMP:  47; 6HR MAX TEMP:  59;

$$



USA.gov is the U.S. government's official web portal to all federal, state and local government web resources and services.